STARLINK-36592, 68007

Orbit data source: Space-Track

STARLINK-36592, 68007 is a payload satellite owned by SpaceX/Seattle (US) in LEO that was launched on Fri, 27 Feb 2026 UTC via an FALCON 9 launch vehicle from the Air Force Eastern Test Range (AFETR). Payload-class satellites include a variety of spacecraft equipped with specific instruments for various scientific and technological missions. These include communications satellites like Starlink; space stations such as the ISS; scientific satellites like the Hubble; Earth observation satellites from companies like Planet Labs, Umbra, and HawkEye 360; GPS; miniature CubeSats for education and research; and military/defense satellites.

Loading next visibility...
Identifier
68007, 2026-039X
Orbit
LEO
Country
Flag of USUS
Related business
Manufacturer
SpaceX/Seattle
Mission
Operational Commercial Communications
Bus & Motor
STARLINK V2MO, Unknown motor
Mass
575 kg wet, ~530 kg dry
Launch date (UTC)
2026-02-27 (2 months ago)
Launch vehicle
FALCON 9
Launch site
Air Force Eastern Test Range (AFETR)
Object type
Payload
Rocket body
Debris
Shape & HBR
Box + 2 Pan, 17.7 m
Radar Cross Section
36.964 m²

Expand to show TLE details & history
Last TLE update: 7 hours ago

TLE from 7 hours ago
0 STARLINK-36592
1 68007U 26039X   26119.30492718  .00019891  00000-0  73008-3 0  9993
2 68007  43.0014 123.1310 0000628 273.8079  86.2701 15.27593659  9441
Epoch: 2026-04-29T07:19Z
TLE epoch observation values (Epoch: 2026-04-29T07:19:05.708Z)
Latitude
-0°
Longitude
156.08941°
Altitude
482.756 km
Speed
7.626 km/s
True Right ascension
08h 12m 31s
True Declination
0° 00' 00"
Sunlit
Object was in daylight at epoch
Visualization orbit readout
Latitude
Unknown
Longitude
Unknown
Altitude
Unknown
Speed
Unknown
Apparent Right ascension
Unknown
Apparent Declination
Unknown
Sunlit
N/A
Visualization observer readout
Local Sidereal Time
21:52:56
Azimuth
Unknown
Elevation
Unknown
Doppler factor
Unknown
Orbital elements
Apogee altitude
485.384 km
Perigee altitude
484.522 km
Semi-major axis
6,863.09 km
Eccentricity
0.00006
Inclination
43.0014°
RAAN
123.131°
Arg. of periapsis
273.8079°
True anomaly
86.27728°
Mean anomaly
86.2701°
Eccentric anomaly
86.27369°
Mean motion
3.81736 °/min
Orbital period
94.31 mins
BSTAR
0.00073008
Loading maneuver chart data...
Computing Atmospheric mass density...
Loading historical data...
Loading historical data...
Loading historical data...
Loading historical data...
Loading historical data...
Loading historical data...
Loading historical data...

Documentation

Showing up to 5 results
|